Showing default

GGSE 5, 2834

Orbit data source: Space-Track

GGSE 5, 2834 is an American payload satellite in LEO that was launched on Wed, 31 May 1967 UTC via a THOR SLV-2 AGENA D launch vehicle from the Air Force Western Test Range (AFWTR). Payload-class satellites include a variety of spacecraft equipped with specific instruments for various scientific and technological missions. These include communications satellites like Starlink; space stations such as the ISS; scientific satellites like the Hubble; Earth observation satellites from companies like Planet Labs, Umbra, and HawkEye 360; GPS; miniature CubeSats for education and research; and military/defense satellites.

Loading next visibility...
Identifier
2834, 1967-053D
Orbit
LEO
Country
Flag of USUS
Related business
Manufacturer
NRL
Mission
Spacecraft
Bus & Motor
NRL MULTI, Unknown motor
Mass
105 kg wet, 105 kg dry
Launch date (UTC)
1967-05-31 (58 years ago)
Launch vehicle
THOR SLV-2 AGENA D
Launch site
Air Force Western Test Range (AFWTR)
Object type
Payload
Rocket body
Debris
Shape & HBR
Unknown
Radar Cross Section
Medium (>0.1 m² and <1 m²)

Expand to show TLE details & history
Last TLE update: 9 hours ago

TLE from 9 hours ago
0 GGSE 5
1  2834U 67053D   25295.74472345  .00000041  00000-0  68864-4 0  9998
2  2834  69.9713 281.4614 0006788 181.1070 179.0022 13.96149607972990
Epoch: 2025-10-22T17:52Z
TLE epoch observation values (Epoch: 2025-10-22T17:52:24.106Z)
Latitude
0.00003°
Longitude
-18.05296°
Altitude
914.415 km
Speed
7.393 km/s
True Right ascension
18h 45m 50s
True Declination
0° 00' 00"
Sunlit
Object was in daylight at epoch
Visualization orbit readout
Latitude
Unknown
Longitude
Unknown
Altitude
Unknown
Speed
Unknown
Apparent Right ascension
Unknown
Apparent Declination
Unknown
Sunlit
N/A
Visualization observer readout
Local Sidereal Time
21:41:43
Azimuth
Unknown
Elevation
Unknown
Doppler factor
Unknown
Orbital elements
Apogee altitude
910.149 km
Perigee altitude
900.261 km
Semi-major axis
7,283.342 km
Eccentricity
0.00068
Inclination
69.9713°
RAAN
281.4614°
Arg. of periapsis
181.107°
True anomaly
179.00355°
Mean anomaly
179.0022°
Eccentric anomaly
179.00288°
Mean motion
3.49178 °/min
Orbital period
103.1 mins
BSTAR
0.000068864
Loading maneuver chart data...
Computing Atmospheric mass density...
Loading historical data...
Loading historical data...
Loading historical data...
Loading historical data...
Loading historical data...
Loading historical data...
Loading historical data...

Documentation

Showing up to 5 results
|